Regional Weather Roundup
Issued by NWS

Home | Current Version | Previous Version | Text Only | Print | Product List | Glossary On
Versions: 1 2 3 4 5 6 7 8 9 10 11 12 13 14 15 16 17 18 19 20 21 22 23 24 25 26 27 28 29 30 31 32 33 34 35 36 37 38 39 40 41 42 43 44 45 46 47 48 49 50
000
ASUS43 KDTX 230601
RWRMI
MICHIGAN HOURLY REGIONAL WEATHER ROUNDUP
NATIONAL WEATHER SERVICE DETROIT/PONTIAC MI
200 AM EDT SAT JUL 23 2016

NOTE: "FAIR" INDICATES FEW OR NO CLOUDS BELOW 12,000 FEET WITH NO
SIGNIFICANT WEATHER AND/OR OBSTRUCTION TO VISIBILITY.

MIZ047>049-052>055-059>063-066>070-074>076-081>083-230700-
SOUTHEAST LOWER MICHIGAN

CITY           SKY/WX    TMP DP  RH WIND       PRES   REMARKS
ADRIAN         CLEAR     72  69  90 CALM      30.00R
6HR MIN TEMP:  72; 6HR MAX TEMP:  88;

ALMA           CLEAR     67  67  99 CALM      29.98F FOG
ANN ARBOR      CLEAR     67  67 100 SW5       29.99R
BAD AXE        CLEAR     61  59  92 CALM      29.96S
CARO           FOG       66  65  97 CALM      29.97R VSB 3/4
DETROIT CITY   CLEAR     80  71  74 W5        29.97R
6HR MIN TEMP:  80; 6HR MAX TEMP:  91;

DETROIT        CLEAR     78  69  73 W6        29.98R
6HR MIN TEMP:  78; 6HR MAX TEMP:  90;

FLINT          CLEAR     77  69  76 NW7       29.98R
6HR MIN TEMP:  77; 6HR MAX TEMP:  91;

GROSSE ILE     CLEAR     77  70  80 CALM      29.96S
6HR MIN TEMP:  77; 6HR MAX TEMP:  88;

HOWELL         CLEAR     72  69  90 SW3       30.00R

CITY           SKY/WX    TMP DP  RH WIND       PRES   REMARKS
JACKSON        CLEAR     71  70  96 CALM      30.01R
6HR MIN TEMP:  70; 6HR MAX TEMP:  85; 6HR PCP: TRACE;

LAMBERTVILLE   CLEAR     74  71  89 CALM      29.99R
6HR MIN TEMP:  74; 6HR MAX TEMP:  89;

LANSING        CLEAR     72  68  87 W6        30.00R
6HR MIN TEMP:  72; 6HR MAX TEMP:  87;

LAPEER         FAIR      68  66  93 CALM      29.98R
6HR MIN TEMP:  68; 6HR MAX TEMP:  89;

MASON          CLEAR     68  66  93 CALM      30.00R
MONROE         CLEAR     73  71  92 NW3       29.97R
6HR MIN TEMP:  73; 6HR MAX TEMP:  87;

MT. CLEMENS    CLEAR     78  69  73 W7        29.94R
6HR MIN TEMP:  78; 6HR MAX TEMP:  90;

PONTIAC        CLEAR     75  70  84 W5        29.98R
6HR MIN TEMP:  75; 6HR MAX TEMP:  89;

PORT HOPE        N/A     69  62  78 W7        29.93S
6HR MIN TEMP:  66; 6HR MAX TEMP:  78;

PORT HURON     CLEAR     73  68  83 NW5       29.95R
TRI CITIES     CLEAR     72  69  90 W7        29.97S
6HR MIN TEMP:  72; 6HR MAX TEMP:  87;

MIDLAND        FAIR      64  63  96 CALM      29.97S
6HR MIN TEMP:  64; 6HR MAX TEMP:  90;

TROY           CLEAR     79  68  68 W6        29.99R
SAGINAW HB     CLEAR     72  66  83 W6        29.96S
$$
MIZ043>046-050>051-056>058-064>065-071>073-077>080-230700-
SOUTHWEST LOWER MICHIGAN

CITY           SKY/WX    TMP DP  RH WIND       PRES   REMARKS
BATTLE CREEK   CLEAR     67  67 100 S5        30.01S
6HR MIN TEMP:  67; 6HR MAX TEMP:  83;

BENTON HARBOR  CLEAR     70  68  93 CALM      30.00S
6HR MIN TEMP:  70; 6HR MAX TEMP:  82;

BIG RAPIDS     CLEAR     66  66 100 CALM      29.99S
6HR MIN TEMP:  66; 6HR MAX TEMP:  84;

COLDWATER      CLEAR     69  69  99 CALM      30.01S
6HR MIN TEMP:  69; 6HR MAX TEMP:  86;

FREMONT        FAIR      66  66 100 CALM      29.99S
HOLLAND        MOCLDY    64  63  96 CALM      30.00S
6HR MIN TEMP:  64; 6HR MAX TEMP:  79;

GRAND RAPIDS   CLEAR     70  66  87 W5        30.00S
6HR MIN TEMP:  70; 6HR MAX TEMP:  84;

IONIA          FAIR      69  66  92 W3        29.99S
6HR MIN TEMP:  69; 6HR MAX TEMP:  85;

KALAMAZOO      CLEAR     70  67  90 SW3       30.01R
6HR MIN TEMP:  69; 6HR MAX TEMP:  85;

LUDINGTON      CLEAR     73  69  87 SW8       29.97S
6HR MIN TEMP:  68; 6HR MAX TEMP:  78;

MARSHALL         N/A     69  68  98 CALM      30.01R FOG
6HR MIN TEMP:  69; 6HR MAX TEMP:  85;

MOUNT PLEASANT CLEAR     70  65  85 CALM      29.97F
6HR MIN TEMP:  69; 6HR MAX TEMP:  89;

MUSKEGON       FOG       68  66  93 CALM      29.99S VSB 1/2
6HR MIN TEMP:  67; 6HR MAX TEMP:  78;

SOUTH HAVEN    CLEAR     65  65  99 CALM      30.00S
$$
MIZ016>042-230700-
NORTHERN LOWER MICHIGAN

CITY           SKY/WX    TMP DP  RH WIND       PRES   REMARKS
ALPENA         CLEAR     65  60  84 CALM      29.94S
6HR MIN TEMP:  65; 6HR MAX TEMP:  87;

BEAVER ISLAND  CLEAR     65  63  96 CALM      29.95S
6HR MIN TEMP:  62; 6HR MAX TEMP:  74;

BELLAIRE       CLEAR     64  62  94 CALM      29.96S FOG
6HR MIN TEMP:  64; 6HR MAX TEMP:  83;

CADILLAC       CLEAR     64  60  87 CALM      29.99F
CHARLEVOIX     CLEAR     69  65  86 CALM      29.97S
6HR MIN TEMP:  69; 6HR MAX TEMP:  82;

FRANKFORT      CLEAR     72  68  89 CALM      29.96F
GAYLORD        CLEAR     67  60  78 SW3       29.99R
6HR MIN TEMP:  66; 6HR MAX TEMP:  83;

GRAYLING       CLEAR     61  59  93 CALM      29.99S
HARBOR SPRINGS CLEAR     65  64  93 CALM      29.95S
HOUGHTON LAKE  CLEAR     63  59  87 CALM      29.99S
6HR MIN TEMP:  62; 6HR MAX TEMP:  86;

MANISTEE       CLEAR     66  66 100 E3        29.97R
OSCODA         CLEAR     67  56  67 CALM      29.94S
6HR MIN TEMP:  66; 6HR MAX TEMP:  80;

PELLSTON       CLEAR     62  59  90 CALM      29.95R
6HR MIN TEMP:  62; 6HR MAX TEMP:  81;

ROGERS CITY    CLEAR     68  60  75 SW5       29.94S
TRAVERSE CITY  CLEAR     75  65  70 CALM      29.95R
6HR MIN TEMP:  70; 6HR MAX TEMP:  87;

$$
MIZ007>008-015-230700-
EASTERN UPPER MICHIGAN

CITY           SKY/WX    TMP DP  RH WIND       PRES   REMARKS
KINROSS        CLEAR     64  60  87 W6        29.93S
6HR MIN TEMP:  62; 6HR MAX TEMP:  81;

MACKINAC ISLAN CLEAR     69  64  83 W5        29.93S
6HR MIN TEMP:  69; 6HR MAX TEMP:  74;

NEWBERRY       CLEAR     63  61  91 W6        29.94R
6HR MIN TEMP:  63; 6HR MAX TEMP:  81;

S. S. MARIE    CLEAR     67  57  70 W7        29.91S
6HR MIN TEMP:  65; 6HR MAX TEMP:  79;

MUNISING         N/A     65  61  87 S8        29.93S
6HR MIN TEMP:  65; 6HR MAX TEMP:  80;

$$
MIZ004>006-011>014-085-230700-
CENTRAL UPPER MICHIGAN

CITY           SKY/WX    TMP DP  RH WIND       PRES   REMARKS
MANISTIQUE     CLEAR     61  60  97 CALM      29.94S
6HR MIN TEMP:  60; 6HR MAX TEMP:  76;

ESCANABA       CLEAR     66  57  72 NW5       29.94S
6HR MIN TEMP:  63; 6HR MAX TEMP:  90;

MENOMINEE      CLEAR     70  67  90 CALM        N/A
6HR MIN TEMP:  68; 6HR MAX TEMP:  85;

SAWYER-GWINN   CLEAR     64  56  77 CALM      29.98R
6HR MIN TEMP:  64; 6HR MAX TEMP:  85;

$$
MIZ001>003-009>011-084-230700-
WESTERN UPPER MICHIGAN

CITY           SKY/WX    TMP DP  RH WIND       PRES   REMARKS
IRON MOUNTAIN  CLEAR     64  58  80 CALM      29.98S
6HR MIN TEMP:  63; 6HR MAX TEMP:  88;

HOUGHTON       CLEAR     65  54  67 NW9       29.96R
6HR MIN TEMP:  64; 6HR MAX TEMP:  81;

COPPER HARBOR    N/A     73  57  57 NW3       29.93R
6HR MIN TEMP:  71; 6HR MAX TEMP:  82;

IRONWOOD       CLOUDY    63  61  94 CALM      30.00R
6HR MIN TEMP:  63; 6HR MAX TEMP:  84;

$$

ABBREVIATIONS USED IN REMARKS
   TC - TEMPERATURE IN CELSIUS
  WCI - WIND CHILL INDEX
   HX - HEAT INDEX
  VSB - VISIBILITY





USA.gov is the U.S. government's official web portal to all federal, state and local government web resources and services.